This is the latest recevied weather packets stored in our database for station/object N8ESG-13. If no packets are shown the sender has not sent any weather packets the latest 10 day(s).
| Time | Temp. | Humidity | Pressure | Rain* | Wind** | Luminosity | Snow |
|---|---|---|---|---|---|---|---|
| 1778009417 | 13.33° C | 88% | 1006 hPa | 0.51 mm | - | - | - |
| 1777987816 | 16.67° C | 77% | 1004.4 hPa | 0 mm | - | - | - |
| 1777978837 | 16.67° C | 70% | 1003.3 hPa | 0 mm | - | - | - |
| 1777964436 | 17.78° C | 67% | 1001.9 hPa | 0 mm | - | - | - |
| 1777962616 | 17.78° C | 67% | 1002 hPa | 0 mm | - | - | - |
| 1777960816 | 17.78° C | 68% | 1002.4 hPa | 0 mm | - | - | - |
| 1777935616 | 21.11° C | 58% | 1002 hPa | 0 mm | - | - | - |
| 1777928437 | 22.78° C | 49% | 1002.9 hPa | 0 mm | - | - | - |
| 1777924816 | 23.33° C | 46% | 1003.4 hPa | 0 mm | - | - | - |
| 1777915817 | 21.67° C | 48% | 1005.1 hPa | 0 mm | - | - | - |
| 1777897836 | 12.22° C | 66% | 1007.3 hPa | 0 mm | - | - | - |
| 1777890616 | 8.89° C | 71% | 1006.7 hPa | 0 mm | - | - | - |
| 1777888816 | 8.89° C | 71% | 1006.8 hPa | 0 mm | - | - | - |
| 1777887036 | 8.89° C | 70% | 1007.1 hPa | 0 mm | - | - | - |
| 1777883416 | 8.89° C | 69% | 1007.5 hPa | 0 mm | - | - | - |
| 1777879816 | 9.44° C | 67% | 1008.1 hPa | 0 mm | - | - | - |
| 1777849216 | 13.89° C | 45% | 1010.5 hPa | 0 mm | - | - | - |
| 1777845637 | 14.44° C | 45% | 1010.9 hPa | 0 mm | - | - | - |
| 1777813236 | 7.78° C | 55% | 1015.6 hPa | 0 mm | - | - | - |
| 1777811456 | 5.56° C | 72% | 1015.7 hPa | 0 mm | - | - | - |
| 1777804216 | -1.11° C | 92% | 1014.4 hPa | 0 mm | - | - | - |
| 1777788036 | -0.56° C | 91% | 1014.4 hPa | 0 mm | - | - | - |
| 1777780816 | 2.78° C | 79% | 1014.7 hPa | 0 mm | - | - | - |
| 1777773616 | 3.89° C | 73% | 1015.2 hPa | 0 mm | - | - | - |
| 1777771816 | 3.89° C | 73% | 1015.2 hPa | 0 mm | - | - | - |
* Rain latest hour (hover to see other rain measurements)
** Current wind speed in m/s (hover to see current wind gust speed)